Miscellaneous Local Product
Issued by NWS Hastings, NE

Home | Current Version | Previous Version | Graphics & Text | Print | Product List | Glossary On
Versions: 1 2 3 4 5 6 7 8 9 10 11 12 13 14 15 16 17 18 19 20 21 22 23 24 25 26 27 28 29 30 31 32 33 34 35 36 37 38 39 40 41 42 43 44 45 46 47 48 49 50
483
AXUS43 KGID 231702
MISGRI

GID CWA HOURLY WEATHER ROUNDUP
NATIONAL WEATHER SERVICE HASTINGS NE
1200 PM CDT MON APR 23 2018

NOTE: "FAIR" INDICATES FEW OR NO CLOUDS BELOW 12,000 FEET WITH NO
SIGNIFICANT WEATHER AND/OR OBSTRUCTIONS TO VISIBILITY.

...SOUTH CENTRAL NEBRASKA...

CITY           SKY/WX    TMP DP  RH WIND       PRES   REMARKS
GRAND ISLAND   SUNNY     64  40  41 SE5       30.18F
KEARNEY        SUNNY     63  39  41 S10       30.18F
HASTINGS       SUNNY     62  40  44 VRB6      30.18F
ORD            SUNNY     65  36  34 SE10      30.16F
YORK             N/A     64  37  36 CALM      30.18S
AURORA         SUNNY     64  37  37 CALM      30.18S
LEXINGTON      SUNNY     62  40  44 SE8       30.18S
HOLDREGE       SUNNY     62  38  40 CALM      30.17F
HEBRON         SUNNY     67  34  28 E7        30.16F

...NEBRASKA PANHANDLE...

CITY           SKY/WX    TMP DP  RH WIND       PRES   REMARKS
CHADRON        SUNNY     64  41  42 S15       30.07S
ALLIANCE       MOSUNNY   59  40  49 S20       30.11S
SCOTTSBLUFF    MOSUNNY   59  44  57 SE14      30.08F
SIDNEY         SUNNY     59  39  47 S17       30.12S

...WESTERN AND NORTH CENTRAL NEBRASKA...

CITY           SKY/WX    TMP DP  RH WIND       PRES   REMARKS
VALENTINE      SUNNY     64  38  38 S17G26    30.15S
AINSWORTH      SUNNY     62  40  44 S13       30.16F
ONEILL         SUNNY     67  34  29 S8        30.18F
BROKEN BOW     SUNNY     62  39  42 S7        30.17S
IMPERIAL       SUNNY     60  39  45 SE15      30.15S
NORTH PLATTE   SUNNY     62  42  47 SW12      30.16S
MCCOOK         SUNNY     62  40  44 SE12G18   30.16F

...EASTERN NEBRASKA...

CITY           SKY/WX    TMP DP  RH WIND       PRES   REMARKS
NORFOLK        SUNNY     66  32  28 E5        30.18F
SO SIOUX CITY  SUNNY     65  33  30 VRB5      30.19F
TEKAMAH        SUNNY     67  30  25 NW5       30.18F
COLUMBUS       SUNNY     65  39  38 W5        30.19F
ALBION         SUNNY     66  36  33 E5        30.18S
OMAHA EPPLEY   MOSUNNY   69  30  23 NE9       30.17F
OFFUTT AFB     SUNNY     68  31  25 N7        30.16F
MILLARD        SUNNY     66  32  27 CALM      30.17F
LINCOLN        SUNNY     68  34  28 E5        30.18F
NEBRASKA CITY  SUNNY     68  33  27 E15       30.15F
BEATRICE       SUNNY     69  33  26 NE12      30.15F
FALLS CITY     SUNNY     70  32  24 NE14G22   30.13F

...NORTHERN KANSAS...

CITY           SKY/WX    TMP DP  RH WIND       PRES   REMARKS
GOODLAND       SUNNY     58  39  49 S13G24    30.14F
HILL CITY        N/A    N/A N/A N/A MISG      30.18F
NORTON           N/A     63  39  42 S5        30.17S
PHILLIPSBURG   SUNNY     66  37  34 SE5       30.17F
SMITH CENTER   SUNNY     64  39  39 SE9       30.18S
BELOIT         SUNNY     57  32  38 CALM      30.16F
HAYS           SUNNY     64  40  41 NE8       30.17F
RUSSELL        SUNNY     65  42  43 CALM      30.16F
CONCORDIA      SUNNY     67  33  28 MISG      30.15F
SALINA         SUNNY     68  36  30 NW7       30.15F
TOPEKA         SUNNY     69  38  32 N10G22    30.11F



USA.gov is the U.S. government's official web portal to all federal, state and local government web resources and services.